Regional Weather Roundup
Issued by NWS

Home | Current Version | Previous Version | Text Only | Print | Product List | Glossary On
Versions: 1 2 3 4 5 6 7 8 9 10 11 12 13 14 15 16 17 18 19 20 21 22 23 24 25 26 27 28 29 30 31 32 33 34 35 36 37 38 39 40 41 42 43 44 45 46 47 48 49 50
784
ASUS43 KMPX 012010
RWRMN
WEATHER ROUNDUP FOR MINNESOTA
NATIONAL WEATHER SERVICE TWIN CITIES/CHANHASSEN MN
200 PM CST WED MAR 01 2017


NOTE: "FAIR" INDICATES FEW OR NO CLOUDS BELOW 12,000 FEET WITH NO
SIGNIFICANT WEATHER AND/OR OBSTRUCTIONS TO VISIBILITY. N/A MEANS
CURRENT SKY AND/OR WEATHER CONDITIONS ARE NOT AVAILABLE.

MNZ060>063-068>070-012100-
   Twin Cities Metro

CITY           SKY/WX    TMP DP  RH WIND       PRES   REMARKS
TWIN CITIES    PTSUNNY   35  22  58 NW15      29.92R WCI  25
ST PAUL        PTSUNNY   35  22  58 NW13      29.92S WCI  26
CRYSTAL        CLOUDY    36  21  54 NW14G21   29.91R
BLAINE         MOSUNNY   37  21  52 NW14G20   29.90S
LAKEVILLE      PTSUNNY   34  25  69 NW14G20   29.91R WCI  24
EDEN PRAIRIE   CLOUDY    35  22  58 NW12      29.91R WCI  27
SOUTH ST PAUL  CLOUDY    36  23  60 NW14      29.91R
LAKE ELMO      FAIR      34  25  69 NW8       29.91S WCI  27
$$
MNZ001>005-007-008-013>017-022>024-027-028-012100-
   Northwest Minnesota

CITY           SKY/WX    TMP DP  RH WIND       PRES   REMARKS
BEMIDJI        PTSUNNY   26  10  51 N9        29.94S WCI  16
HALLOCK        SUNNY     18  10  73 NW13      30.08R WCI   4
ROSEAU         LGT SNOW  23  18  80 W8        30.00S WCI  14
WARROAD        PTSUNNY   25  12  58 NW8       29.99S WCI  16
THIEF RVR FALL FLURRIES  21  15  78 NW15      30.03R WCI   8
CROOKSTON      SUNNY     21  12  68 N18       30.07S WCI   6
FOSSTON        FLURRIES  23  16  74 NW9       30.00R WCI  13
DETROIT LAKES  CLOUDY    23  18  80 NW17G23   30.01R WCI   9
MOORHEAD       DRIZZLE   21  16  79 NW17      30.07R WCI   7
PARK RAPIDS    CLOUDY    28  11  48 NW12      29.93R WCI  18
MAHNOMEN       CLOUDY    22  16  77 NW14G22   30.00R WCI  10
$$
MNZ006-009>011-018-025>026-012100-
   North Central Minnesota

CITY           SKY/WX    TMP DP  RH WIND       PRES   REMARKS
BAUDETTE       CLOUDY    19  10  68 N13       29.97S WCI   6
FLAG ISLAND    PTSUNNY   21   9  58 N6        29.98F WCI  14
INTL FALLS     CLOUDY    23  -1  35 N9        29.93  WCI  13
WASKISH        CLOUDY    25  14  63 N6        29.96R WCI  18
BIG FORK       MOSUNNY   28   0  29 N7        29.91S WCI  21
LONGVILLE      CLOUDY    27   9  46 NW7       29.92S WCI  19
GRAND RAPIDS   CLOUDY    32  10  40 NW12      29.91  WCI  23
CRANE LAKE     PTSUNNY   23  -8  25 NW7       29.93S WCI  15
ORR            PTSUNNY   27  -9  20 CALM      29.88R
COOK           PTSUNNY   27   1  33 W9        29.89S WCI  17
WALKER         CLOUDY    26  10  52 N8G16     29.93S WCI  17
$$
MNZ012-019>021-037-012100-
   Northeast Minnesota

CITY           SKY/WX    TMP DP  RH WIND       PRES   REMARKS
DULUTH         MOSUNNY   28   5  37 CALM      29.85
ELY            SUNNY     27 -11  18 NE6       29.86S WCI  20
HIBBING        PTSUNNY   27   3  35 NW7       29.87S WCI  19
EVELETH        SUNNY     28  -3  26 NW9       29.88R WCI  19
DULUTH HARBOR  SUNNY     27  18  69 CALM      29.92S
TWO HARBORS    MOSUNNY   28  18  64 SE8       29.86R WCI  20
SILVER BAY     SUNNY     27  10  50 S7        29.85S WCI  19
GRAND MARAIS     N/A     23   6  48 SW5       29.90  WCI  17
G MARAIS ARPRT SUNNY     21  -6  30 N6        29.81S WCI  14
$$
MNZ029>031-032-039>041-046>048-054>057-064-012100-
   West Central Minnesota

CITY           SKY/WX    TMP DP  RH WIND       PRES   REMARKS
FERGUS FALLS   CLOUDY    21  18  86 NW18G25   30.07R WCI   6
WHEATON        PTSUNNY   28  18  64 NW20      30.06S WCI  15
MORRIS         CLOUDY    25  18  74 NW24      30.02R WCI   9
ALEXANDRIA     CLOUDY    28  18  66 NW17G24   29.97R WCI  16
ELBOW LAKE     CLOUDY    22  17  81 NW17      30.02R WCI   8
WADENA         MIX PCPN  27  18  69 NW14      29.95R WCI  15
GLENWOOD       MOSUNNY   28  19  69 W20       29.97R WCI  15
APPLETON       CLOUDY    28  19  69 NW14G22   30.04R WCI  17
BENSON         CLOUDY    30  18  59 N17G26    30.03R WCI  18
ORTONVILLE     PTSUNNY   28  18  64 NW20      30.04R WCI  15
MADISON        CLOUDY    30  21  69 NW18      30.04R WCI  18
WILLMAR        PTSUNNY   30  25  80 NW15G26   29.99R WCI  19
$$
MNZ033>034-036-042>043-049>051-058-059-012100-
   Central Minnesota

CITY           SKY/WX    TMP DP  RH WIND       PRES   REMARKS
ST CLOUD       CLOUDY    34  22  61 NW10      29.92R WCI  26
SAUK CENTRE    CLOUDY    31  18  58 NW15      29.95R WCI  20
PAYNESVILLE    CLOUDY    32  22  66 NW12      29.95S WCI  23
AITKIN         PTSUNNY   36   9  32 W8        29.89R
PINE RIVER     CLOUDY    28  12  50 NW7       29.95S WCI  21
BRAINERD       PTSUNNY   31  11  43 NW9       29.92R WCI  23
STAPLES        PTSUNNY   28  18  64 W12       29.93R WCI  18
LONG PRAIRIE   CLOUDY    32  18  55 W16       29.94R WCI  21
LITTLE FALLS   CLOUDY    32  18  55 NW10      29.92S WCI  24
LITCHFIELD     PTSUNNY   36  25  64 NW9       29.95R
BUFFALO        CLOUDY    35  23  62 W9        29.94R WCI  27
MAPLE LAKE     PTSUNNY   36  27  69 W10       29.93S
HUTCHINSON     PTSUNNY   37  26  64 NW17G25   29.95R
$$
MNZ037-044-045-052-053-012100-
   East Central Minnesota

CITY           SKY/WX    TMP DP  RH WIND       PRES   REMARKS
PRINCETON      CLOUDY    36  23  60 W12       29.92R
MORA           SUNNY     34  19  55 NW8       29.92S WCI  27
CAMBRIDGE      SUNNY     36  21  55 NW6       29.89S
RUSH CITY      SUNNY     33  19  56 NW8       29.91S WCI  26
MOOSE LAKE     SUNNY     32  12  43 CALM      29.87S
HINCKLEY       FAIR      32  19  59 N3        29.90R
CLOQUET        SUNNY     28   1  31 CALM      29.87R
MCGREGOR       SUNNY     32  14  47 NW6       29.89S WCI  26
$$
MNZ071>073-080-081-089-090-097-098-012100-
   Southwest Minnesota

CITY           SKY/WX    TMP DP  RH WIND       PRES   REMARKS
MONTEVIDEO     CLOUDY    28  21  74 N18       30.04R WCI  16
GRANITE FALLS  PTSUNNY   32  24  73 W18       30.04R WCI  20
CANBY          PTSUNNY   31  23  72 W15G22    30.05R WCI  20
MARSHALL       FLURRIES  30  22  72 NW20      30.03  WCI  17
REDWOOD FALLS  CLOUDY    33  20  58 NW16G24   30.00R WCI  23
OLIVIA         PTSUNNY   32  23  69 NW20G25   29.99R WCI  20
PIPESTONE      LGT SNOW  28  23  80 NW16G22   30.02R WCI  17
WINDOM         MOSUNNY   34  25  69 NW24      29.98R WCI  21
WORTHINGTON    CLOUDY    35  25  66 W20       30.00  WCI  24
JACKSON        PTSUNNY   32  23  69 NW22      29.98R WCI  19
TRACY          CLOUDY    32  24  73 NW20G26   30.01S WCI  20
SLAYTON        CLOUDY    32  25  74 W20       30.00R WCI  20
$$
MNZ065>067-074>077-082>085-091>093-012100-
   South Central Minnesota

CITY           SKY/WX    TMP DP  RH WIND       PRES   REMARKS
MANKATO          N/A     33  25  72 NW17G23   29.95  WCI  22
NEW ULM        PTSUNNY   37  25  60 NW20G29   29.96R
ST JAMES       MOSUNNY   36  27  69 W23G29    29.97S
FAIRMONT       CLOUDY    35  25  66 NW22G30   29.97R WCI  23
GLENCOE        PTSUNNY   36  29  73 NW13G18   29.94R
FARIBAULT      CLOUDY    34  25  69 NW12G20   29.93R WCI  25
WASECA         CLOUDY    32  27  80 NW13G23   29.94R WCI  22
ALBERT LEA     CLOUDY    32  27  80 NW12      29.92R WCI  23
$$
MNZ078>079-086>088-094>096-012100-
   Southeast Minnesota

CITY           SKY/WX    TMP DP  RH WIND       PRES   REMARKS
ROCHESTER      MOSUNNY   30  22  72 NW20      29.88  WCI  17
RED WING       MOSUNNY   34  19  55 NW8       29.90R WCI  27
STANTON        CLOUDY    35  24  63 NW14      29.90S WCI  26
WINONA         CLOUDY    32  25  74 NW15G25   29.89R WCI  22
AUSTIN         CLOUDY    30  23  74 NW17G23   29.91R WCI  18
PRESTON        CLOUDY    29  22  75 NW13G21   29.87R WCI  19
$$
ABBREVIATIONS USED IN REMARKS
   TC - TEMPERATURES IN CELSIUS
  WCI - WIND CHILL INDEX
   HX - HEAT INDEX
  VSB - VISIBILITY
$$




USA.gov is the U.S. government's official web portal to all federal, state and local government web resources and services.